This is the latest recevied weather packets stored in our database for station/object DH8TOM-4. If no packets are shown the sender has not sent any weather packets the latest 10 day(s).
| Time | Temp. | Humidity | Pressure | Rain* | Wind** | Luminosity | Snow |
|---|---|---|---|---|---|---|---|
| 1787920592 | 21.11° C | 83% | 1012.3 hPa | - | - | - | - |
| 1787920290 | 21.67° C | 82% | 1012.5 hPa | - | - | - | - |
| 1787919989 | 21.67° C | 82% | 1012.5 hPa | - | - | - | - |
| 1787919689 | 21.67° C | 82% | 1012.5 hPa | - | - | - | - |
| 1787919387 | 21.67° C | 80% | 1012.5 hPa | - | - | - | - |
| 1787919086 | 21.67° C | 80% | 1012.5 hPa | - | - | - | - |
| 1787918786 | 22.22° C | 80% | 1012.2 hPa | - | - | - | - |
| 1787918484 | 22.22° C | 80% | 1012.2 hPa | - | - | - | - |
| 1787918183 | 22.78° C | 77% | 1012.2 hPa | - | - | - | - |
| 1787917882 | 22.78° C | 77% | 1012.2 hPa | - | - | - | - |
| 1787917582 | 23.33° C | 78% | 1012 hPa | - | - | - | - |
| 1787917280 | 23.33° C | 78% | 1012 hPa | - | - | - | - |
| 1787916980 | 23.33° C | 76% | 1011.5 hPa | - | - | - | - |
| 1787916678 | 23.33° C | 76% | 1011.5 hPa | - | - | - | - |
| 1787916377 | 23.89° C | 75% | 1010.9 hPa | - | - | - | - |
| 1787916076 | 23.89° C | 75% | 1010.9 hPa | - | - | - | - |
| 1787915776 | 23.89° C | 77% | 1010.2 hPa | - | - | - | - |
| 1787915474 | 23.89° C | 77% | 1010.2 hPa | - | - | - | - |
| 1787915175 | 23.33° C | 77% | 1009.3 hPa | - | - | - | - |
| 1787914873 | 23.33° C | 77% | 1009.3 hPa | - | - | - | - |
| 1787914573 | 23.33° C | 77% | 1008.9 hPa | - | - | - | - |
| 1787914270 | 23.33° C | 77% | 1008.9 hPa | - | - | - | - |
| 1787913970 | 23.33° C | 76% | 1008.2 hPa | - | - | - | - |
| 1787913668 | 23.33° C | 76% | 1008.2 hPa | - | - | - | - |
| 1787913368 | 23.89° C | 75% | 1008.3 hPa | - | - | - | - |
* Rain since midnight (hover to see other rain measurements)
** Current wind speed in m/s (hover to see current wind gust speed)